Powrót do katalogu

FENGYUN 1C DEB

AktywnySSO
NORAD 36729·DEBRIS·🇨🇳 China

Wystrzelony May 10, 1999 z Taiyuan Satellite Launch Center

Loading…

Następne Przeloty (najbliższe 24 godziny)

TLE

ŚwieżeSource: Space-Track

Epoka: Sep 14, 2026, 05:17 UTC

1 36729U 99025EBB 26257.22069826  .00000278  00000-0  17817-3 0  9993
2 36729  98.7370 235.8776 0045617 193.7825 166.2104 14.10551843911350

Śledź FENGYUN 1C DEB w czasie rzeczywistym z AllMySat

Download on the App Store